| time (UTC) | temp F | wind direction | speed knots | gust knots | rain 1hr in | rain 24hr in | rain mn in | humidity % | barometer mb |
| 20260504202945 | 77 | 130 | 2.6 | 7.0 | 0.00 | 0.00 | 0.00 | 27 | 1008.9 |
| 20260504201446 | 77 | 83 | 1.7 | 7.0 | 0.00 | 0.00 | 0.00 | 29 | 1009.0 |
| 20260504195946 | 76 | 143 | 1.7 | 6.1 | 0.00 | 0.00 | 0.00 | 29 | 1009.0 |
| 20260504194445 | 76 | 12 | 2.6 | 8.7 | 0.00 | 0.00 | 0.00 | 31 | 1009.0 |
| 20260504192947 | 74 | 58 | 3.5 | 8.7 | 0.00 | 0.00 | 0.00 | 32 | 1009.1 |
| 20260504191447 | 75 | 148 | 2.6 | 6.1 | 0.00 | 0.00 | 0.00 | 32 | 1009.4 |
| 20260504185947 | 74 | 120 | 3.5 | 7.8 | 0.00 | 0.00 | 0.00 | 32 | 1009.5 |
| 20260504184446 | 74 | 42 | 2.6 | 5.2 | 0.00 | 0.00 | 0.00 | 33 | 1009.7 |
| 20260504182944 | 73 | 50 | 3.5 | 8.7 | 0.00 | 0.00 | 0.00 | 32 | 1009.6 |
| 20260504181446 | 72 | 146 | 2.6 | 8.7 | 0.00 | 0.00 | 0.00 | 36 | 1009.6 |
| 20260504175948 | 71 | 58 | 2.6 | 9.6 | 0.00 | 0.00 | 0.00 | 35 | 1009.7 |
| 20260504174448 | 71 | 351 | 1.7 | 6.1 | 0.00 | 0.00 | 0.00 | 36 | 1009.6 |
| 20260504172945 | 70 | 49 | 1.7 | 6.1 | 0.00 | 0.00 | 0.00 | 37 | 1009.7 |
| 20260504171446 | 69 | 47 | 2.6 | 7.8 | 0.00 | 0.00 | 0.00 | 42 | 1009.7 |
| 20260504081447 | 50 | 160 | 0.0 | 0.0 | 0.00 | 0.00 | 0.00 | 76 | 1008.7 |
| 20260504045949 | 57 | 141 | 0.0 | 0.0 | 0.00 | 0.00 | 0.00 | 64 | 1009.0 |
| 20260504044449 | 58 | 141 | 0.0 | 0.0 | 0.00 | 0.00 | 0.00 | 62 | 1009.1 |
| 20260504042949 | 58 | 141 | 0.0 | 0.0 | 0.00 | 0.00 | 0.00 | 62 | 1009.1 |
| 20260504041449 | 60 | 176 | 0.0 | 0.0 | 0.00 | 0.00 | 0.00 | 60 | 1009.0 |
| 20260504035949 | 61 | 176 | 0.0 | 0.0 | 0.00 | 0.00 | 0.00 | 57 | 1009.1 |
| 20260504034447 | 63 | 176 | 0.0 | 0.0 | 0.00 | 0.00 | 0.00 | 54 | 1009.0 |
| 20260504032947 | 65 | 176 | 0.0 | 0.0 | 0.00 | 0.00 | 0.00 | 52 | 1008.8 |
| 20260504031446 | 67 | 177 | 0.0 | 0.0 | 0.00 | 0.00 | 0.00 | 46 | 1008.8 |
| 20260504025947 | 70 | 176 | 0.0 | 0.9 | 0.00 | 0.00 | 0.00 | 40 | 1008.8 |
| 20260504024451 | 73 | 323 | 0.0 | 0.0 | 0.00 | 0.00 | 0.00 | 36 | 1008.8 |
| 20260504022948 | 79 | 324 | 0.0 | 0.0 | 0.00 | 0.00 | 0.00 | 31 | 1008.8 |
| 20260504021449 | 80 | 324 | 0.0 | 0.0 | 0.00 | 0.00 | 0.00 | 27 | 1008.9 |
| 20260504015947 | 81 | 321 | 1.7 | 2.6 | 0.00 | 0.00 | 0.00 | 22 | 1009.0 |
| 20260504014448 | 80 | 309 | 0.0 | 1.7 | 0.00 | 0.00 | 0.00 | 23 | 1009.2 |
| 20260504012947 | 79 | 1 | 0.9 | 2.6 | 0.00 | 0.00 | 0.00 | 24 | 1009.3 |
| 20260504011448 | 81 | 252 | 0.0 | 3.5 | 0.00 | 0.00 | 0.00 | 23 | 1009.4 |
| 20260504005948 | 80 | 308 | 0.9 | 4.3 | 0.00 | 0.00 | 0.00 | 23 | 1009.5 |
| 20260504004446 | 81 | 281 | 2.6 | 5.2 | 0.00 | 0.00 | 0.00 | 21 | 1009.6 |
| 20260504002947 | 81 | 226 | 0.9 | 3.5 | 0.00 | 0.00 | 0.00 | 22 | 1009.7 |
| 20260504001449 | 82 | 345 | 0.9 | 3.5 | 0.00 | 0.00 | 0.00 | 21 | 1009.9 |
| 20260503235951 | 80 | 316 | 0.0 | 6.1 | 0.00 | 0.00 | 0.00 | 22 | 1010.1 |
| 20260503234451 | 80 | 244 | 1.7 | 7.8 | 0.00 | 0.00 | 0.00 | 23 | 1010.2 |
| 20260503232947 | 81 | 203 | 0.9 | 5.2 | 0.00 | 0.00 | 0.00 | 21 | 1010.3 |
| 20260503231449 | 81 | 251 | 1.7 | 4.3 | 0.00 | 0.00 | 0.00 | 21 | 1010.4 |
| 20260503225946 | 81 | 253 | 0.9 | 2.6 | 0.00 | 0.00 | 0.00 | 21 | 1010.7 |
| 20260503224451 | 79 | 77 | 0.9 | 4.3 | 0.00 | 0.00 | 0.00 | 22 | 1010.9 |
| 20260503222950 | 79 | 248 | 0.9 | 6.1 | 0.00 | 0.00 | 0.00 | 22 | 1011.1 |
| 20260503221449 | 78 | 68 | 0.9 | 5.2 | 0.00 | 0.00 | 0.00 | 22 | 1011.4 |
| 20260503215950 | 78 | 51 | 0.9 | 5.2 | 0.00 | 0.00 | 0.00 | 23 | 1011.7 |
| 20260503214448 | 78 | 356 | 3.5 | 7.8 | 0.00 | 0.00 | 0.00 | 20 | 1011.9 |
| 20260503212950 | 79 | 172 | 0.9 | 3.5 | 0.00 | 0.00 | 0.00 | 22 | 1012.1 |
| 20260503211451 | 78 | 300 | 1.7 | 4.3 | 0.00 | 0.00 | 0.00 | 24 | 1012.2 |
| 20260503205948 | 78 | 342 | 2.6 | 5.2 | 0.00 | 0.00 | 0.00 | 23 | 1012.5 |
| 20260503204450 | 77 | 324 | 2.6 | 7.0 | 0.00 | 0.00 | 0.00 | 23 | 1012.7 |